Regional Weather Roundup
Issued by NWS Upton, NY

Current Version | Previous Version | Text Only | Print | Product List | Glossary On
Versions: 1 2 3 4 5 6 7 8 9 10 11 12 13 14 15 16 17 18 19 20 21 22 23 24 25 26 27 28 29 30 31 32 33 34 35 36 37 38 39 40 41 42 43 44 45 46 47 48 49 50
636
ASUS41 KOKX 260709
RWROKX

REGIONAL WEATHER ROUNDUP
NATIONAL WEATHER SERVICE NEW YORK NY
300 AM EDT WED APR 26 2017

NOTE: "FAIR" INDICATES FEW OR NO CLOUDS BELOW 12,000 FEET WITH NO
SIGNIFICANT WEATHER AND/OR OBSTRUCTIONS TO VISIBILITY.

NYZ071-072-176-178-NJZ106-104-260800-
NEW YORK CITY METRO AREA

CITY           SKY/WX    TMP DP  RH WIND       PRES   REMARKS
Central Park   CLOUDY    54  54 100 E9G22     29.81F FOG
Wall St Helipt CLOUDY    54  52  94 NE18G24   29.78F
Bronx Bot Gard   N/A     54  54 100 NE7       29.79F
LaGuardia APRT CLOUDY    54  51  90 NE21      29.78F FOG
Kennedy INTL   DRIZZLE   55  54  96 NE12      29.78F FOG
Breezy Point     N/A     54 N/A N/A NE12        N/A
Newark/Liberty DRIZZLE   55  54  96 NE14      29.78F FOG
Teterboro      DRIZZLE   55  54  96 N8        29.78F FOG
$$

NYZ177-179-078>081-260800-
LONG ISLAND NEW YORK

CITY           SKY/WX    TMP DP  RH WIND       PRES   REMARKS
Jones Beach      N/A     55 N/A N/A NE22        N/A
Matinecock PT  NOT AVBL
Farmingdale    CLOUDY    55  54  96 N10       29.76F
MacArthur/ISP  CLOUDY    57  57 100 NE10      29.77F
Shirley        CLOUDY    56  56 100 VRB5      29.77F
Mt Sinai Harb    N/A    N/A N/A N/A NE9G15      N/A
Westhampton    LGT RAIN  54  52  93 E15G29    29.75F
East Hampton   LGT RAIN  53  52  97 E17G24    29.79F
Montauk          N/A     54  53  97 E12G24    29.82
$$

NYZ052-065-067-260800-
HUDSON VALLEY

CITY           SKY/WX    TMP DP  RH WIND       PRES   REMARKS
White Plains   DRIZZLE   55  53  93 NE9       29.79S FOG
Larchmont Harb   N/A     52 N/A N/A NE12        N/A
Croton O-T Hud   N/A     52 N/A N/A CALM        N/A
Newburgh       CLOUDY    52  52 100 NE6       29.85F FOG
Montgomery     LGT RAIN  51  50  96 NE10      29.84S FOG
Poughkeepsie   CLOUDY    50  49  96 NW8       29.83F
Albany         DRIZZLE   50  48  93 N6        29.92F
$$

NJZ001-105-106-008-010-013-015-019>022-104-260800-
NEW JERSEY

CITY           SKY/WX    TMP DP  RH WIND       PRES   REMARKS
Newark/Liberty DRIZZLE   55  54  96 NE14      29.78F FOG
Teterboro      DRIZZLE   55  54  96 N8        29.78F FOG
Caldwell       CLOUDY    53  52  96 NE6       29.80F FOG
Somerville     CLOUDY    55  53  93 N9        29.76S FOG
Linden         CLOUDY    55  54  94 E12       29.79S FOG
Sussex         CLOUDY    51  50  96 NE13G21   29.82F FOG
Andover          N/A     50  49  96 NE8       29.80F
Trenton        LGT RAIN  55  54  96 NE14      29.72F FOG
Millville      FOG       59  59 100 NE8       29.67F VSB 1/2
Atlantic City  LGT RAIN  58  56  93 NE6       29.68S
Wrightstown    CLOUDY    55  54  98 NE13      29.70S
Toms River     CLOUDY    54  54 100 NE10      29.72F FOG
Belmar         LGT RAIN  54  54 100 NE12      29.74F VSB 1
$$

PAZ047>061-062-071-260800-
EASTERN PENNSYLVANIA

CITY           SKY/WX    TMP DP  RH WIND       PRES   REMARKS
Philadelphia   CLOUDY    56  55  97 NE13      29.71S
Allentown      CLOUDY    53  50  89 NE13      29.76F
Scranton       CLOUDY    53  50  89 NE9G18    29.79F
$$

CTZ002-004>006-009-010-012-RIZ004-006-007-MAZ004-011-015-260800-
SOUTHERN NEW ENGLAND
 IN CT

CITY           SKY/WX    TMP DP  RH WIND       PRES   REMARKS
Bradley INTL   LGT RAIN  48  47  96 N14       29.90F FOG
Hartford       LGT RAIN  49  48  97 N12       29.87F FOG
Danbury        CLOUDY    49  49 100 NE10G20   29.84F FOG
Wtrbury/Oxford CLOUDY    48  45  87 NE13G18   29.85F
Bridgeport     CLOUDY    55  51  86 NE15      29.81F
Meriden        LGT RAIN  50  48  93 N10G17    29.86F
New Haven      CLOUDY    51  49  92 N9        29.82F
Chester        LGT RAIN  54  54 100 NE8       29.83F
Groton         LGT RAIN  58  56  93 E15G26    29.82F FOG
Wilimantic     LGT RAIN  51  49  92 NE14      29.88F FOG

 IN RI

CITY           SKY/WX    TMP DP  RH WIND       PRES   REMARKS
Providence     LGT RAIN  51  51 100 N15       29.91F FOG
Block Island   NOT AVBL
Westerly       LGT RAIN  58  57  97 E14G24    29.85F FOG
 IN MA

CITY           SKY/WX    TMP DP  RH WIND       PRES   REMARKS
Boston         LGT RAIN  49  49 100 NE13      29.98F FOG
Worcester      LGT RAIN  42  41  96 N14       29.94F FOG
Westfield      LGT RAIN  47  47 100 N14       29.91F FOG
Provincetown   CLOUDY    53  53 100 SE13G18   29.97F FOG
Nantucket      FOG       53  51  93 E20G31    29.92F VSB 3/4
$$

ANZ330-335-338-340-345-350-353-355-260800-
COASTAL MARINE OBSERVATIONS


STATION/POSITION TIME  SKY/WX   TEMP    WIND        PRES    VSBY  WAVE
                                AIR SEA DIR/SP/G                  HT/PER
                 (UTC)          (F)     (DEG/KT/KT) (MB)    (MI)  (FT/S)
NY HARB ENTRANCE 0550            51 48   20/ 12/ 14 1007.6          9/12
20 S FIRE ISLAND 0650            51 47   70/ 10/ 12 1006.0         10/11
GREAT SOUTH BAY  0630            54 55   70/ 17/ 23   N/A
23 SSW MONTAUK P 0550            50 45              1009.1         10/11
15 E BARNEGAT LI 0630               49                N/A          10/11
HUDSON CANYON    0550            53 47  110/ 16/ 19 1005.6         13/11
KINGS POINT      0648            53 48   90/  5/ 16 1008.4
EXECUTION ROCKS  NOT AVBL
CENTRAL LI SOUND 0630            51      60/ 17/ 21   N/A           3/ 4
EASTERN LI SOUND NOT AVBL
ROBBINS REEF     0648            53      40/ 18/ 20 1008.5
$$


>>>>>>>>>>>>>>>>>>>>>>>>>>>> KEY <<<<<<<<<<<<<<<<<<<<<<<<<<<
>                                                          <
>     SKY/WX - Sky Condition/Present Weather               <
>     TMP    - Temperature in Fahrenheit                   <
>     DP     - Dew Point in Fahrenheit                     <
>     RH     - Relative Humidity in Percent                <
>     WIND   - Direction (from) and Speed in MPH           <
>     PRES   - Mean Sea Level Pressure (inches of Hg)      <
>     WCI    - Wind Chill Index                            <
>     VSB    - VISIBILITY IN MILES                         <
>     HX     - HEAT INDEX                                  <
>     TC     - TEMPERATURE IN CELSIUS                      <
>     VRB    - VARIABLE WIND DIRECTION                     <
>                                                          <
>>>>>>>>>>>>>>>>>>>>>>>>>>>> KEY <<<<<<<<<<<<<<<<<<<<<<<<<<<




USA.gov is the U.S. government's official web portal to all federal, state and local government web resources and services.